,,,PA_Meas_PMT16A,,PR_Meas_QMR101_102,,RH_Meas_QMH101,,SR_Meas_QMS101,,TA_Meas_QMH101,,GenWind,,GenWind,
date,time,status,PA,status,PR,status,RH,status,SR,status,TA,status,DirAvg,status,SpdAvg,
2010-04-13, 00:00:04,VALID,1001.4,VALID,0,VALID,92.0895,VALID,0,VALID,23.4475,VALID,155,VALID,0.248828,
2010-04-13, 00:01:04,VALID,1001.42,VALID,0,VALID,92.0971,VALID,0,VALID,23.4067,VALID,155,VALID,0,
2010-04-13, 00:02:04,VALID,1001.4,VALID,0,VALID,92.0437,VALID,0,VALID,23.428,VALID,148,VALID,0.750391,
2010-04-13, 00:03:04,VALID,1001.4,VALID,0,VALID,91.9598,VALID,0,VALID,23.4067,VALID,148,VALID,0.179297,
2010-04-13, 00:04:04,VALID,1001.41,VALID,0,VALID,91.9598,VALID,0,VALID,23.4085,VALID,148,VALID,0.00585938,
2010-04-13, 00:05:04,VALID,1001.38,VALID,0,VALID,91.9827,VALID,0,VALID,23.389,VALID,148,VALID,0,
2010-04-13, 00:06:04,VALID,1001.41,VALID,0,VALID,91.9903,VALID,0,VALID,23.3695,VALID,148,VALID,0,
2010-04-13, 00:07:04,VALID,1001.37,VALID,0,VALID,91.998,VALID,0,VALID,23.3713,VALID,147,VALID,0,
2010-04-13, 00:08:04,VALID,1001.35,VALID,0,VALID,91.9751,VALID,0,VALID,23.311,VALID,136,VALID,0,
2010-04-13, 00:09:04,VALID,1001.33,VALID,0,VALID,92.0361,VALID,0,VALID,23.311,VALID,64,VALID,0.142578,
2010-04-13, 00:10:04,VALID,1001.33,VALID,0,VALID,92.0056,VALID,0,VALID,23.2915,VALID,77,VALID,0,
2010-04-13, 00:11:04,VALID,1001.34,VALID,0,VALID,92.0743,VALID,0,VALID,23.2719,VALID,99,VALID,0,
2010-04-13, 00:12:04,VALID,1001.32,VALID,0,VALID,92.12,VALID,0,VALID,23.2507,VALID,100,VALID,0,
2010-04-13, 00:13:04,VALID,1001.32,VALID,0,VALID,92.0819,VALID,0,VALID,23.2507,VALID,100,VALID,0,
2010-04-13, 00:14:04,VALID,1001.3,VALID,0,VALID,92.0895,VALID,0,VALID,23.2719,VALID,101,VALID,0,
2010-04-13, 00:15:04,VALID,1001.27,VALID,0,VALID,92.0971,VALID,0,VALID,23.2507,VALID,101,VALID,0,
2010-04-13, 00:16:04,VALID,1001.29,VALID,0,VALID,92.059,VALID,0,VALID,23.2524,VALID,101,VALID,0,
2010-04-13, 00:17:04,VALID,1001.25,VALID,0,VALID,92.0666,VALID,0,VALID,23.2524,VALID,101,VALID,0,
2010-04-13, 00:18:04,VALID,1001.27,VALID,0,VALID,92.059,VALID,0,VALID,23.2117,VALID,101,VALID,0,
2010-04-13, 00:19:04,VALID,1001.26,VALID,0,VALID,92.0666,VALID,0,VALID,23.1921,VALID,101,VALID,0,
2010-04-13, 00:20:04,VALID,1001.22,VALID,0,VALID,92.12,VALID,0,VALID,23.1921,VALID,103,VALID,0,
2010-04-13, 00:21:04,VALID,1001.2,VALID,0,VALID,92.1429,VALID,0,VALID,23.1726,VALID,104,VALID,0,
2010-04-13, 00:22:04,VALID,1001.17,VALID,0,VALID,92.1277,VALID,0,VALID,23.1939,VALID,104,VALID,0,
2010-04-13, 00:23:04,VALID,1001.15,VALID,0,VALID,92.0971,VALID,0,VALID,23.1549,VALID,104,VALID,0,
2010-04-13, 00:24:04,VALID,1001.14,VALID,0,VALID,92.1048,VALID,0,VALID,23.1141,VALID,103,VALID,0,
2010-04-13, 00:25:04,VALID,1001.1,VALID,0,VALID,92.12,VALID,0,VALID,23.1141,VALID,103,VALID,0,
2010-04-13, 00:26:04,VALID,1001.09,VALID,0,VALID,92.1963,VALID,0,VALID,23.1159,VALID,103,VALID,0,
2010-04-13, 00:27:04,VALID,1001.04,VALID,0,VALID,92.3108,VALID,0,VALID,23.1141,VALID,103,VALID,0,
2010-04-13, 00:28:04,VALID,1001.03,VALID,0,VALID,92.3794,VALID,0,VALID,23.1159,VALID,104,VALID,0,
2010-04-13, 00:29:04,VALID,1000.99,VALID,0,VALID,92.41,VALID,0,VALID,23.1354,VALID,104,VALID,0,
2010-04-13, 00:30:04,VALID,1000.99,VALID,0,VALID,92.4405,VALID,0,VALID,23.1354,VALID,104,VALID,0,
2010-04-13, 00:31:04,VALID,1000.98,VALID,0,VALID,92.4405,VALID,0,VALID,23.1141,VALID,104,VALID,0,
2010-04-13, 00:32:04,VALID,1000.98,VALID,0,VALID,92.4557,VALID,0,VALID,23.1336,VALID,104,VALID,0,
2010-04-13, 00:33:04,VALID,1000.96,VALID,0,VALID,92.4328,VALID,0,VALID,23.1336,VALID,104,VALID,0,
2010-04-13, 00:34:04,VALID,1000.97,VALID,0,VALID,92.3794,VALID,0,VALID,23.1531,VALID,104,VALID,0,
2010-04-13, 00:35:04,VALID,1000.96,VALID,0,VALID,92.3337,VALID,0,VALID,23.1336,VALID,104,VALID,0,
2010-04-13, 00:36:04,VALID,1000.98,VALID,0,VALID,92.4023,VALID,0,VALID,23.1531,VALID,103,VALID,0,
2010-04-13, 00:37:04,VALID,1000.94,VALID,0,VALID,92.3718,VALID,0,VALID,23.1744,VALID,103,VALID,0,
2010-04-13, 00:38:04,VALID,1000.96,VALID,0,VALID,92.3337,VALID,0,VALID,23.1939,VALID,103,VALID,0,
2010-04-13, 00:39:04,VALID,1000.92,VALID,0,VALID,92.1811,VALID,0,VALID,23.2134,VALID,103,VALID,0,
2010-04-13, 00:40:04,VALID,1000.91,VALID,0,VALID,91.9674,VALID,0,VALID,23.1921,VALID,104,VALID,0,
2010-04-13, 00:41:04,VALID,1000.91,VALID,0,VALID,91.7767,VALID,0,VALID,23.1744,VALID,104,VALID,0,
2010-04-13, 00:42:04,VALID,1000.89,VALID,0,VALID,91.7843,VALID,0,VALID,23.1336,VALID,104,VALID,0,
2010-04-13, 00:43:04,VALID,1000.91,VALID,0,VALID,91.914,VALID,0,VALID,23.1336,VALID,104,VALID,0,
2010-04-13, 00:44:04,VALID,1000.89,VALID,0,VALID,92.0209,VALID,0,VALID,23.1336,VALID,104,VALID,0,
2010-04-13, 00:45:04,VALID,1000.88,VALID,0,VALID,92.0437,VALID,0,VALID,23.1354,VALID,103,VALID,0,
2010-04-13, 00:46:04,VALID,1000.88,VALID,0,VALID,92.0209,VALID,0,VALID,23.0964,VALID,103,VALID,0,
2010-04-13, 00:47:04,VALID,1000.84,VALID,0,VALID,92.059,VALID,0,VALID,23.0361,VALID,25,VALID,0,
2010-04-13, 00:48:04,VALID,1000.84,VALID,0,VALID,92.2726,VALID,0,VALID,23.0166,VALID,25,VALID,0,
2010-04-13, 00:49:04,VALID,1000.79,VALID,0,VALID,92.4405,VALID,0,VALID,23.0183,VALID,25,VALID,0,
2010-04-13, 00:50:04,VALID,1000.82,VALID,0,VALID,92.5778,VALID,0,VALID,23.0166,VALID,25,VALID,0,
2010-04-13, 00:51:04,VALID,1000.78,VALID,0,VALID,92.7151,VALID,0,VALID,22.9971,VALID,25,VALID,0,
2010-04-13, 00:52:04,VALID,1000.78,VALID,0,VALID,92.8067,VALID,0,VALID,23.0166,VALID,25,VALID,0,
2010-04-13, 00:53:04,VALID,1000.76,VALID,0,VALID,92.7914,VALID,0,VALID,23.0183,VALID,25,VALID,0,
2010-04-13, 00:54:04,VALID,1000.76,VALID,0,VALID,92.7304,VALID,0,VALID,22.9793,VALID,25,VALID,0,
2010-04-13, 00:55:04,VALID,1000.74,VALID,0,VALID,92.7685,VALID,0,VALID,22.9793,VALID,25,VALID,0,
2010-04-13, 00:56:04,VALID,1000.74,VALID,0,VALID,92.7533,VALID,0,VALID,22.9403,VALID,25,VALID,0,
2010-04-13, 00:57:04,VALID,1000.77,VALID,0,VALID,92.7914,VALID,0,VALID,22.9208,VALID,25,VALID,0,
2010-04-13, 00:58:04,VALID,1000.75,VALID,0,VALID,92.9135,VALID,0,VALID,22.9208,VALID,25,VALID,0,
2010-04-13, 00:59:04,VALID,1000.72,VALID,0,VALID,93.0585,VALID,0,VALID,22.919,VALID,25,VALID,0,
2010-04-13, 01:00:04,VALID,1000.73,VALID,0,VALID,93.1348,VALID,0,VALID,22.9581,VALID,25,VALID,0,
2010-04-13, 01:01:04,VALID,1000.67,VALID,0,VALID,93.15,VALID,0,VALID,22.9598,VALID,25,VALID,0,
2010-04-13, 01:02:04,VALID,1000.65,VALID,0,VALID,93.1424,VALID,0,VALID,22.9403,VALID,25,VALID,0,
2010-04-13, 01:03:04,VALID,1000.63,VALID,0,VALID,93.1577,VALID,0,VALID,22.9403,VALID,25,VALID,0,
2010-04-13, 01:04:04,VALID,1000.62,VALID,0,VALID,93.3103,VALID,0,VALID,22.9403,VALID,25,VALID,0,
2010-04-13, 01:05:04,VALID,1000.62,VALID,0,VALID,93.2568,VALID,0,VALID,22.9598,VALID,35,VALID,0.606641,
2010-04-13, 01:06:04,VALID,1000.6,VALID,0,VALID,93.3026,VALID,0,VALID,22.9581,VALID,61,VALID,0.707031,
2010-04-13, 01:07:04,VALID,1000.6,VALID,0,VALID,93.3179,VALID,0,VALID,22.9793,VALID,61,VALID,0.624609,
2010-04-13, 01:08:04,VALID,1000.6,VALID,0,VALID,93.3408,VALID,0.112286,VALID,22.9971,VALID,74,VALID,0.700781,
2010-04-13, 01:09:04,VALID,1000.56,VALID,0,VALID,93.2645,VALID,0,VALID,23.0183,VALID,79,VALID,0.333594,
2010-04-13, 01:10:04,VALID,1000.54,VALID,0,VALID,93.1958,VALID,0,VALID,23.0183,VALID,79,VALID,0,
2010-04-13, 01:11:04,VALID,1000.52,VALID,0,VALID,93.1729,VALID,0,VALID,23.0183,VALID,79,VALID,0,
2010-04-13, 01:12:04,VALID,1000.52,VALID,0,VALID,93.089,VALID,0,VALID,22.9988,VALID,79,VALID,0,
2010-04-13, 01:13:04,VALID,1000.48,VALID,0,VALID,93.0203,VALID,0,VALID,22.9598,VALID,79,VALID,0,
2010-04-13, 01:14:04,VALID,1000.47,VALID,0,VALID,92.9974,VALID,0,VALID,22.9385,VALID,79,VALID,0,
2010-04-13, 01:15:04,VALID,1000.49,VALID,0,VALID,92.9517,VALID,0,VALID,22.8995,VALID,79,VALID,0,
2010-04-13, 01:16:04,VALID,1000.44,VALID,0,VALID,92.9059,VALID,0,VALID,22.8818,VALID,79,VALID,0,
2010-04-13, 01:17:04,VALID,1000.42,VALID,0,VALID,92.9135,VALID,0,VALID,22.8818,VALID,79,VALID,0,
2010-04-13, 01:18:04,VALID,1000.43,VALID,0,VALID,92.9822,VALID,0,VALID,22.841,VALID,79,VALID,0,
2010-04-13, 01:19:04,VALID,1000.4,VALID,0,VALID,93.0127,VALID,0,VALID,22.8427,VALID,79,VALID,0,
2010-04-13, 01:20:04,VALID,1000.39,VALID,0,VALID,93.0203,VALID,0,VALID,22.8232,VALID,79,VALID,0,
2010-04-13, 01:21:04,VALID,1000.36,VALID,0,VALID,93.1424,VALID,0,VALID,22.8427,VALID,62,VALID,0,
2010-04-13, 01:22:04,VALID,1000.37,VALID,0,VALID,93.1958,VALID,0,VALID,22.8835,VALID,57,VALID,0,
2010-04-13, 01:23:04,VALID,1000.38,VALID,0,VALID,93.2721,VALID,0,VALID,22.9013,VALID,57,VALID,0,
2010-04-13, 01:24:04,VALID,1000.37,VALID,0,VALID,93.3179,VALID,0,VALID,22.9208,VALID,57,VALID,0,
2010-04-13, 01:25:04,VALID,1000.34,VALID,0,VALID,93.295,VALID,0,VALID,22.9403,VALID,57,VALID,0,
2010-04-13, 01:26:04,VALID,1000.35,VALID,0,VALID,93.2797,VALID,0,VALID,22.919,VALID,57,VALID,0,
2010-04-13, 01:27:04,VALID,1000.34,VALID,0,VALID,93.2721,VALID,0,VALID,22.9598,VALID,57,VALID,0,
2010-04-13, 01:28:04,VALID,1000.31,VALID,0,VALID,93.3179,VALID,0.112286,VALID,22.9793,VALID,92,VALID,0,
2010-04-13, 01:29:04,VALID,1000.32,VALID,0,VALID,93.3484,VALID,0,VALID,22.9793,VALID,99,VALID,0.602734,
2010-04-13, 01:30:04,VALID,1000.29,VALID,0,VALID,93.3331,VALID,0,VALID,22.9988,VALID,106,VALID,0.799609,
2010-04-13, 01:31:04,VALID,1000.26,VALID,0,VALID,93.3026,VALID,0,VALID,23.0378,VALID,104,VALID,0.617188,
2010-04-13, 01:32:04,VALID,1000.22,VALID,0,VALID,93.2721,VALID,0,VALID,23.0378,VALID,115,VALID,0.589844,
2010-04-13, 01:33:04,VALID,1000.2,VALID,0,VALID,93.2492,VALID,0,VALID,23.0361,VALID,121,VALID,1.20586,
2010-04-13, 01:34:04,VALID,1000.18,VALID,0,VALID,93.2034,VALID,0,VALID,23.0556,VALID,117,VALID,0.889063,
2010-04-13, 01:35:04,VALID,1000.2,VALID,0,VALID,93.1195,VALID,0,VALID,23.0769,VALID,120,VALID,0.749609,
2010-04-13, 01:36:04,VALID,1000.15,VALID,0,VALID,93.0508,VALID,0,VALID,23.0751,VALID,125,VALID,0.650391,
2010-04-13, 01:37:04,VALID,1000.13,VALID,0,VALID,92.9822,VALID,0,VALID,23.0946,VALID,138,VALID,0.605859,
2010-04-13, 01:38:04,VALID,1000.09,VALID,0,VALID,92.9059,VALID,0,VALID,23.1159,VALID,138,VALID,0.635547,
2010-04-13, 01:39:04,VALID,1000.09,VALID,0,VALID,92.8143,VALID,0,VALID,23.1141,VALID,139,VALID,0.519531,
2010-04-13, 01:40:04,VALID,1000.08,VALID,0,VALID,92.7304,VALID,0,VALID,23.1354,VALID,139,VALID,0.544141,
2010-04-13, 01:41:04,VALID,1000.08,VALID,0,VALID,92.677,VALID,0,VALID,23.1354,VALID,139,VALID,0.594922,
2010-04-13, 01:42:04,VALID,1000.04,VALID,0,VALID,92.616,VALID,0,VALID,23.1549,VALID,129,VALID,0.616406,
2010-04-13, 01:43:04,VALID,1000.04,VALID,0,VALID,92.5473,VALID,0,VALID,23.1531,VALID,131,VALID,0.502734,
2010-04-13, 01:44:04,VALID,1000.01,VALID,0,VALID,92.4786,VALID,0,VALID,23.1744,VALID,134,VALID,0.439063,
2010-04-13, 01:45:04,VALID,1000.03,VALID,0,VALID,92.4328,VALID,0,VALID,23.1744,VALID,134,VALID,0.639844,
2010-04-13, 01:46:04,VALID,999.989,VALID,0,VALID,92.3871,VALID,0,VALID,23.1726,VALID,134,VALID,0.378906,
2010-04-13, 01:47:04,VALID,999.979,VALID,0,VALID,92.3489,VALID,0,VALID,23.1744,VALID,134,VALID,0.0703125,
2010-04-13, 01:48:04,VALID,999.984,VALID,0,VALID,92.3184,VALID,0.112286,VALID,23.1744,VALID,118,VALID,0,
2010-04-13, 01:49:04,VALID,999.959,VALID,0,VALID,92.2955,VALID,0,VALID,23.1531,VALID,117,VALID,0,
2010-04-13, 01:50:04,VALID,999.975,VALID,0,VALID,92.2879,VALID,0,VALID,23.1744,VALID,117,VALID,0,
2010-04-13, 01:51:04,VALID,999.964,VALID,0,VALID,92.2726,VALID,0.112286,VALID,23.1531,VALID,117,VALID,0,
2010-04-13, 01:52:04,VALID,999.954,VALID,0,VALID,92.3108,VALID,0,VALID,23.1744,VALID,117,VALID,0,
2010-04-13, 01:53:04,VALID,999.924,VALID,0,VALID,92.3108,VALID,0,VALID,23.1531,VALID,117,VALID,0,
2010-04-13, 01:54:04,VALID,999.93,VALID,0,VALID,92.3184,VALID,0,VALID,23.1549,VALID,132,VALID,0.214844,
2010-04-13, 01:55:04,VALID,999.927,VALID,0,VALID,92.326,VALID,0,VALID,23.1549,VALID,132,VALID,0.260547,
2010-04-13, 01:56:04,VALID,999.955,VALID,0,VALID,92.326,VALID,0,VALID,23.1354,VALID,132,VALID,0,
2010-04-13, 01:57:04,VALID,999.945,VALID,0,VALID,92.326,VALID,0,VALID,23.1354,VALID,132,VALID,0,
2010-04-13, 01:58:04,VALID,999.932,VALID,0,VALID,92.3108,VALID,0,VALID,23.1549,VALID,131,VALID,0,
2010-04-13, 01:59:04,VALID,999.941,VALID,0,VALID,92.3108,VALID,0,VALID,23.1549,VALID,132,VALID,0,
2010-04-13, 02:00:04,VALID,999.919,VALID,0,VALID,92.2955,VALID,0,VALID,23.1549,VALID,131,VALID,0,
2010-04-13, 02:01:04,VALID,999.932,VALID,0,VALID,92.3031,VALID,0,VALID,23.1549,VALID,118,VALID,0,
2010-04-13, 02:02:04,VALID,999.931,VALID,0,VALID,92.3031,VALID,0,VALID,23.1744,VALID,118,VALID,0,
2010-04-13, 02:03:04,VALID,999.917,VALID,0,VALID,92.326,VALID,0,VALID,23.1744,VALID,118,VALID,0,
2010-04-13, 02:04:04,VALID,999.925,VALID,0,VALID,92.3337,VALID,0,VALID,23.1531,VALID,118,VALID,0,
2010-04-13, 02:05:04,VALID,999.921,VALID,0,VALID,92.3413,VALID,0,VALID,23.1726,VALID,335,VALID,0,
2010-04-13, 02:06:04,VALID,999.953,VALID,0,VALID,92.3108,VALID,0,VALID,23.1939,VALID,335,VALID,0,
2010-04-13, 02:07:04,VALID,999.929,VALID,0,VALID,92.2268,VALID,0,VALID,23.1744,VALID,335,VALID,0,
2010-04-13, 02:08:04,VALID,999.936,VALID,0,VALID,92.265,VALID,0,VALID,23.1939,VALID,335,VALID,0,
2010-04-13, 02:09:04,VALID,999.985,VALID,0,VALID,92.2497,VALID,0,VALID,23.1939,VALID,335,VALID,0,
2010-04-13, 02:10:04,VALID,999.978,VALID,0,VALID,92.2116,VALID,0,VALID,23.1921,VALID,72,VALID,0,
2010-04-13, 02:11:04,VALID,999.975,VALID,0,VALID,92.1506,VALID,0,VALID,23.1921,VALID,85,VALID,0,
2010-04-13, 02:12:04,VALID,999.966,VALID,0,VALID,92.0514,VALID,0,VALID,23.2524,VALID,123,VALID,0.587891,
2010-04-13, 02:13:04,VALID,999.999,VALID,0,VALID,91.7996,VALID,0,VALID,23.311,VALID,121,VALID,0.514453,
2010-04-13, 02:14:04,VALID,999.978,VALID,0,VALID,91.5326,VALID,0,VALID,23.3092,VALID,110,VALID,0.589844,
2010-04-13, 02:15:04,VALID,999.958,VALID,0,VALID,91.38,VALID,0,VALID,23.389,VALID,82,VALID,0,
2010-04-13, 02:16:04,VALID,999.982,VALID,0,VALID,91.1587,VALID,0,VALID,23.3872,VALID,76,VALID,0,
2010-04-13, 02:17:04,VALID,999.973,VALID,0,VALID,91.0519,VALID,0,VALID,23.4067,VALID,72,VALID,0.000390625,
2010-04-13, 02:18:04,VALID,999.952,VALID,0,VALID,91.0671,VALID,0,VALID,23.4085,VALID,64,VALID,0.845312,
2010-04-13, 02:19:04,VALID,999.923,VALID,0,VALID,91.0443,VALID,0,VALID,23.3677,VALID,56,VALID,0.903906,
2010-04-13, 02:20:04,VALID,999.949,VALID,0,VALID,91.0519,VALID,0,VALID,23.389,VALID,56,VALID,0.793359,
2010-04-13, 02:21:04,VALID,999.923,VALID,0,VALID,91.09,VALID,0,VALID,23.35,VALID,56,VALID,0.71875,
2010-04-13, 02:22:04,VALID,999.902,VALID,0,VALID,91.0977,VALID,0,VALID,23.3695,VALID,56,VALID,0,
2010-04-13, 02:23:04,VALID,999.912,VALID,0,VALID,91.0977,VALID,0,VALID,23.3305,VALID,56,VALID,0,
2010-04-13, 02:24:04,VALID,999.899,VALID,0,VALID,91.1282,VALID,0,VALID,23.3305,VALID,56,VALID,0,
2010-04-13, 02:25:04,VALID,999.896,VALID,0,VALID,91.174,VALID,0,VALID,23.3305,VALID,56,VALID,0,
2010-04-13, 02:26:04,VALID,999.868,VALID,0,VALID,91.2045,VALID,0,VALID,23.2702,VALID,56,VALID,0,
2010-04-13, 02:27:04,VALID,999.889,VALID,0,VALID,91.2045,VALID,0,VALID,23.3127,VALID,56,VALID,0,
2010-04-13, 02:28:04,VALID,999.873,VALID,0,VALID,91.2274,VALID,0,VALID,23.2897,VALID,56,VALID,0,
2010-04-13, 02:29:04,VALID,999.864,VALID,0,VALID,91.2655,VALID,0,VALID,23.2915,VALID,56,VALID,0,
2010-04-13, 02:30:04,VALID,999.829,VALID,0,VALID,91.3494,VALID,0,VALID,23.2719,VALID,56,VALID,0,
2010-04-13, 02:31:04,VALID,999.836,VALID,0,VALID,91.441,VALID,0,VALID,23.2312,VALID,56,VALID,0,
2010-04-13, 02:32:04,VALID,999.81,VALID,0,VALID,91.5402,VALID,0,VALID,23.2117,VALID,56,VALID,0,
2010-04-13, 02:33:04,VALID,999.801,VALID,0,VALID,91.7157,VALID,0,VALID,23.2134,VALID,56,VALID,0,
2010-04-13, 02:34:04,VALID,999.769,VALID,0,VALID,91.7538,VALID,0,VALID,23.1531,VALID,56,VALID,0,
2010-04-13, 02:35:04,VALID,999.762,VALID,0,VALID,91.914,VALID,0,VALID,23.1744,VALID,56,VALID,0,
2010-04-13, 02:36:04,VALID,999.775,VALID,0,VALID,92.0361,VALID,0,VALID,23.1336,VALID,56,VALID,0,
2010-04-13, 02:37:04,VALID,999.777,VALID,0,VALID,92.0743,VALID,0,VALID,23.1354,VALID,56,VALID,0,
2010-04-13, 02:38:04,VALID,999.788,VALID,0,VALID,92.1887,VALID,0,VALID,23.0946,VALID,56,VALID,0,
2010-04-13, 02:39:04,VALID,999.763,VALID,0,VALID,92.265,VALID,0,VALID,23.1159,VALID,56,VALID,0,
2010-04-13, 02:40:04,VALID,999.807,VALID,0,VALID,92.4328,VALID,0,VALID,23.0946,VALID,56,VALID,0,
2010-04-13, 02:41:04,VALID,999.771,VALID,0,VALID,92.5168,VALID,0,VALID,23.0946,VALID,56,VALID,0,
2010-04-13, 02:42:04,VALID,999.791,VALID,0,VALID,92.5397,VALID,0.112286,VALID,23.0946,VALID,56,VALID,0,
2010-04-13, 02:43:04,VALID,999.774,VALID,0,VALID,92.5626,VALID,0,VALID,23.0964,VALID,71,VALID,0,
2010-04-13, 02:44:04,VALID,999.777,VALID,0,VALID,92.6846,VALID,0.112286,VALID,23.0751,VALID,75,VALID,0,
2010-04-13, 02:45:04,VALID,999.751,VALID,0,VALID,92.6923,VALID,0,VALID,23.0964,VALID,75,VALID,0,
2010-04-13, 02:46:04,VALID,999.737,VALID,0,VALID,92.6999,VALID,0,VALID,23.0361,VALID,93,VALID,0,
2010-04-13, 02:47:04,VALID,999.737,VALID,0,VALID,92.7762,VALID,0.112286,VALID,23.0361,VALID,118,VALID,0,
2010-04-13, 02:48:04,VALID,999.713,VALID,0,VALID,92.8067,VALID,0,VALID,23.0166,VALID,118,VALID,0,
2010-04-13, 02:49:04,VALID,999.714,VALID,0,VALID,92.8448,VALID,0,VALID,23.0183,VALID,118,VALID,0,
2010-04-13, 02:50:04,VALID,999.753,VALID,0,VALID,92.8906,VALID,0,VALID,22.9776,VALID,119,VALID,0,
2010-04-13, 02:51:04,VALID,999.708,VALID,0,VALID,92.9517,VALID,0,VALID,22.9988,VALID,119,VALID,0,
2010-04-13, 02:52:04,VALID,999.691,VALID,0,VALID,92.9593,VALID,0,VALID,22.9581,VALID,119,VALID,0,
2010-04-13, 02:53:04,VALID,999.691,VALID,0,VALID,92.9593,VALID,0,VALID,22.9598,VALID,119,VALID,0,
2010-04-13, 02:54:04,VALID,999.702,VALID,0,VALID,92.9822,VALID,0,VALID,22.9403,VALID,119,VALID,0,
2010-04-13, 02:55:04,VALID,999.713,VALID,0,VALID,92.9974,VALID,0,VALID,22.919,VALID,118,VALID,0,
2010-04-13, 02:56:04,VALID,999.704,VALID,0,VALID,92.9974,VALID,0,VALID,22.9403,VALID,113,VALID,0,
2010-04-13, 02:57:04,VALID,999.682,VALID,0,VALID,93.028,VALID,0,VALID,22.8995,VALID,113,VALID,0,
2010-04-13, 02:58:04,VALID,999.681,VALID,0,VALID,92.9974,VALID,0,VALID,22.9013,VALID,113,VALID,0,
2010-04-13, 02:59:04,VALID,999.63,VALID,0,VALID,93.0661,VALID,0,VALID,22.8818,VALID,112,VALID,0,
2010-04-13, 03:00:04,VALID,999.66,VALID,0,VALID,93.1119,VALID,0,VALID,22.9013,VALID,96,VALID,0,
2010-04-13, 03:01:04,VALID,999.607,VALID,0,VALID,93.1348,VALID,0,VALID,22.8818,VALID,85,VALID,0,
2010-04-13, 03:02:04,VALID,999.603,VALID,0,VALID,93.1882,VALID,0,VALID,22.88,VALID,86,VALID,0,
2010-04-13, 03:03:04,VALID,999.583,VALID,0,VALID,93.2645,VALID,0,VALID,22.9013,VALID,85,VALID,0,
2010-04-13, 03:04:04,VALID,999.585,VALID,0,VALID,93.2797,VALID,0,VALID,22.8995,VALID,72,VALID,0,
2010-04-13, 03:05:04,VALID,999.597,VALID,0,VALID,93.356,VALID,0,VALID,22.8995,VALID,65,VALID,0,
2010-04-13, 03:06:04,VALID,999.59,VALID,0,VALID,93.2416,VALID,0,VALID,22.8995,VALID,62,VALID,0,
2010-04-13, 03:07:04,VALID,999.58,VALID,0,VALID,93.234,VALID,0,VALID,22.8605,VALID,62,VALID,0,
2010-04-13, 03:08:04,VALID,999.545,VALID,0,VALID,93.1882,VALID,0,VALID,22.8605,VALID,62,VALID,0,
2010-04-13, 03:09:04,VALID,999.547,VALID,0,VALID,93.1653,VALID,0,VALID,22.8215,VALID,47,VALID,0,
2010-04-13, 03:10:04,VALID,999.521,VALID,0,VALID,93.2568,VALID,0,VALID,22.8215,VALID,47,VALID,0,
2010-04-13, 03:11:04,VALID,999.53,VALID,0,VALID,93.3103,VALID,0,VALID,22.8427,VALID,47,VALID,0,
2010-04-13, 03:12:04,VALID,999.514,VALID,0,VALID,93.3255,VALID,0,VALID,22.8215,VALID,47,VALID,0,
2010-04-13, 03:13:04,VALID,999.528,VALID,0,VALID,93.3179,VALID,0,VALID,22.8215,VALID,41,VALID,0,
2010-04-13, 03:14:04,VALID,999.563,VALID,0,VALID,93.3255,VALID,0,VALID,22.802,VALID,36,VALID,0,
2010-04-13, 03:15:04,VALID,999.55,VALID,0,VALID,93.3408,VALID,0,VALID,22.802,VALID,36,VALID,0,
2010-04-13, 03:16:04,VALID,999.537,VALID,0,VALID,93.3408,VALID,0,VALID,22.802,VALID,36,VALID,0,
2010-04-13, 03:17:04,VALID,999.545,VALID,0,VALID,93.3331,VALID,0.112286,VALID,22.7647,VALID,36,VALID,0,
2010-04-13, 03:18:04,VALID,999.524,VALID,0,VALID,93.3637,VALID,0,VALID,22.763,VALID,36,VALID,0,
2010-04-13, 03:19:04,VALID,999.527,VALID,0,VALID,93.4094,VALID,0,VALID,22.7647,VALID,36,VALID,0,
2010-04-13, 03:20:04,VALID,999.509,VALID,0,VALID,93.3942,VALID,0,VALID,22.7435,VALID,36,VALID,0,
2010-04-13, 03:21:04,VALID,999.52,VALID,0,VALID,93.4705,VALID,0,VALID,22.7842,VALID,36,VALID,0,
2010-04-13, 03:22:04,VALID,999.515,VALID,0,VALID,93.5163,VALID,0,VALID,22.8037,VALID,36,VALID,0,
2010-04-13, 03:23:04,VALID,999.503,VALID,0,VALID,93.5239,VALID,0,VALID,22.8037,VALID,36,VALID,0,
2010-04-13, 03:24:04,VALID,999.508,VALID,0,VALID,93.5163,VALID,0,VALID,22.7825,VALID,36,VALID,0,
2010-04-13, 03:25:04,VALID,999.492,VALID,0,VALID,93.501,VALID,0,VALID,22.7842,VALID,36,VALID,0,
2010-04-13, 03:26:04,VALID,999.516,VALID,0,VALID,93.4857,VALID,0,VALID,22.7435,VALID,36,VALID,0,
2010-04-13, 03:27:04,VALID,999.514,VALID,0,VALID,93.4781,VALID,0,VALID,22.724,VALID,36,VALID,0,
2010-04-13, 03:28:04,VALID,999.535,VALID,0,VALID,93.5086,VALID,0,VALID,22.7045,VALID,36,VALID,0,
2010-04-13, 03:29:04,VALID,999.538,VALID,0,VALID,93.4934,VALID,0,VALID,22.685,VALID,36,VALID,0,
2010-04-13, 03:30:04,VALID,999.535,VALID,0,VALID,93.5315,VALID,0,VALID,22.7062,VALID,36,VALID,0,
2010-04-13, 03:31:04,VALID,999.553,VALID,0,VALID,93.5468,VALID,0,VALID,22.6655,VALID,36,VALID,0,
2010-04-13, 03:32:04,VALID,999.541,VALID,0,VALID,93.5697,VALID,0,VALID,22.685,VALID,36,VALID,0,
2010-04-13, 03:33:04,VALID,999.539,VALID,0,VALID,93.562,VALID,0,VALID,22.6867,VALID,36,VALID,0,
2010-04-13, 03:34:04,VALID,999.54,VALID,0,VALID,93.5849,VALID,0,VALID,22.6655,VALID,36,VALID,0,
2010-04-13, 03:35:04,VALID,999.584,VALID,0,VALID,93.6231,VALID,0,VALID,22.6867,VALID,36,VALID,0,
2010-04-13, 03:36:04,VALID,999.589,VALID,0,VALID,93.6536,VALID,0,VALID,22.685,VALID,36,VALID,0,
2010-04-13, 03:37:04,VALID,999.626,VALID,0,VALID,93.6154,VALID,0,VALID,22.6672,VALID,36,VALID,0,
2010-04-13, 03:38:04,VALID,999.644,VALID,0,VALID,93.6688,VALID,0,VALID,22.6655,VALID,36,VALID,0,
2010-04-13, 03:39:04,VALID,999.64,VALID,0,VALID,93.6917,VALID,0,VALID,22.6867,VALID,36,VALID,0,
2010-04-13, 03:40:04,VALID,999.686,VALID,0,VALID,93.646,VALID,0,VALID,22.6655,VALID,36,VALID,0,
2010-04-13, 03:41:04,VALID,999.675,VALID,0,VALID,93.646,VALID,0,VALID,22.6477,VALID,36,VALID,0,
2010-04-13, 03:42:04,VALID,999.658,VALID,0,VALID,93.6917,VALID,0,VALID,22.6264,VALID,36,VALID,0,
2010-04-13, 03:43:04,VALID,999.674,VALID,0,VALID,93.6765,VALID,0.112286,VALID,22.6264,VALID,36,VALID,0,
2010-04-13, 03:44:04,VALID,999.644,VALID,0,VALID,93.6688,VALID,0,VALID,22.5874,VALID,36,VALID,0,
2010-04-13, 03:45:04,VALID,999.642,VALID,0,VALID,93.7146,VALID,0,VALID,22.6264,VALID,36,VALID,0,
2010-04-13, 03:46:04,VALID,999.652,VALID,0,VALID,93.768,VALID,0,VALID,22.7062,VALID,330,VALID,0,
2010-04-13, 03:47:04,VALID,999.628,VALID,0,VALID,93.7909,VALID,0.112286,VALID,22.685,VALID,328,VALID,0,
2010-04-13, 03:48:04,VALID,999.657,VALID,0,VALID,93.768,VALID,0,VALID,22.685,VALID,323,VALID,0,
2010-04-13, 03:49:04,VALID,999.648,VALID,0,VALID,93.768,VALID,0.112286,VALID,22.6655,VALID,323,VALID,0,
2010-04-13, 03:50:04,VALID,999.643,VALID,0,VALID,93.8138,VALID,0,VALID,22.685,VALID,323,VALID,0,
2010-04-13, 03:51:04,VALID,999.659,VALID,0,VALID,93.7909,VALID,0,VALID,22.6867,VALID,323,VALID,0,
2010-04-13, 03:52:04,VALID,999.66,VALID,0,VALID,93.7985,VALID,0,VALID,22.646,VALID,323,VALID,0,
2010-04-13, 03:53:04,VALID,999.714,VALID,0,VALID,93.7528,VALID,0,VALID,22.6282,VALID,323,VALID,0,
2010-04-13, 03:54:04,VALID,999.716,VALID,0,VALID,93.8062,VALID,0,VALID,22.6282,VALID,323,VALID,0,
2010-04-13, 03:55:04,VALID,999.748,VALID,0,VALID,93.7909,VALID,0,VALID,22.5874,VALID,323,VALID,0,
2010-04-13, 03:56:04,VALID,999.744,VALID,0,VALID,93.7833,VALID,0,VALID,22.6087,VALID,323,VALID,0,
2010-04-13, 03:57:04,VALID,999.728,VALID,0,VALID,93.8672,VALID,0,VALID,22.5874,VALID,323,VALID,0,
2010-04-13, 03:58:04,VALID,999.767,VALID,0,VALID,93.9511,VALID,0,VALID,22.646,VALID,323,VALID,0,